SR5NLK-1 Weather Reports


Display with metric or nautical units.
time (UTC)temp
F
wind
direction
speed
MPH
gust
MPH
rain 1hr
in
rain 24hr
in
rain mn
in
humidity
%
barometer
mb
20260506160730 77 0 4.0 11.0 0.00 0.00 0.00 42 1013.5
20260506160230 77 292 3.0 14.0 0.00 0.00 0.00 41 998.5
20260506155730 78 292 9.0 12.0 0.00 0.00 0.00 41 1001.0
20260506155230 78 292 3.0 6.0 0.00 0.00 0.00 41 1052.2
20260506154730 78 270 4.0 10.0 0.00 0.00 0.00 41 924.8
20260506154237 77 270 7.0 14.0 0.00 0.00 0.00 1046.0
20260506154229 77 270 7.0 14.0 0.00 0.00 0.00 42 1046.0
20260506153730 77 270 4.0 10.0 0.00 0.00 0.00 41 1039.6
20260506153230 77 270 3.0 10.0 0.00 0.00 0.00 41 1064.7
20260506152730 78 247 3.0 14.0 0.00 0.00 0.00 40 1049.1
20260506152230 79 247 7.0 13.0 0.00 0.00 0.00 39 1015.2
20260506151730 79 270 12.0 12.0 0.00 0.00 0.00 39 1046.0
20260506151230 79 270 6.0 14.0 0.00 0.00 0.00 38 1052.2
20260506150929 80 315 6.0 14.0 0.00 0.00 0.00 38 1042.8
20260506150730 80 270 7.0 13.0 0.00 0.00 0.00 37 1007.3
20260506150230 81 247 11.0 12.0 0.00 0.00 0.00 37 1030.3
20260506145730 82 270 8.0 8.0 0.00 0.00 0.00 36 1010.4
20260506145230 82 270 2.0 9.0 0.00 0.00 0.00 36 974.8
20260506144730 83 225 7.0 14.0 0.00 0.00 0.00 35 933.7
20260506144230 84 270 9.0 12.0 0.00 0.00 0.00 35 959.7
20260506143730 83 202 8.0 10.0 0.00 0.00 0.00 35 977.3
20260506143629 83 202 6.0 12.0 0.00 0.00 0.00 35 1036.6
20260506143230 83 270 7.0 13.0 0.00 0.00 0.00 35 1014.3
20260506142730 82 202 12.0 16.0 0.00 0.00 0.00 36 932.8
20260506142230 81 202 14.0 17.0 0.00 0.00 0.00 36 1094.1
20260506141730 82 202 9.0 19.0 0.00 0.00 0.00 35 1006.6
20260506141230 82 202 10.0 17.0 0.00 0.00 0.00 35 914.2
20260506140731 84 202 12.0 18.0 0.00 0.00 0.00 34 1023.3
20260506140329 84 270 15.0 19.0 0.00 0.00 0.00 34 962.3
20260506140230 84 270 11.0 19.0 0.00 0.00 0.00 34 1016.7
20260506135730 85 157 7.0 13.0 0.00 0.00 0.00 34 957.5
20260506135230 84 270 4.0 12.0 0.00 0.00 0.00 34 1055.4
20260506134730 84 202 12.0 17.0 0.00 0.00 0.00 35 913.3
20260506134230 83 270 6.0 14.0 0.00 0.00 0.00 35 1054.6
20260506133730 82 202 12.0 18.0 0.00 0.00 0.00 36 994.7
20260506133230 82 225 7.0 16.0 0.00 0.00 0.00 36 1041.8
20260506133029 82 270 12.0 15.0 0.00 0.00 0.00 36 1022.6
20260506132730 82 247 12.0 18.0 0.00 0.00 0.00 35 1013.1
20260506132230 82 225 9.0 18.0 0.00 0.00 0.00 35 1016.6
20260506131730 83 180 12.0 12.0 0.00 0.00 0.00 35 1059.3
20260506131230 82 247 4.0 17.0 0.00 0.00 0.00 35 962.0
20260506130730 82 270 6.0 14.0 0.00 0.00 0.00 35 1015.2
20260506130230 83 247 4.0 17.0 0.00 0.00 0.00 35 973.7
20260506125729 83 180 11.0 16.0 0.00 0.00 0.00 35 1042.8
20260506125230 82 225 2.0 19.0 0.00 0.00 0.00 35 1052.2
20260506124730 82 247 6.0 13.0 0.00 0.00 0.00 35 991.6
20260506124230 82 202 12.0 17.0 0.00 0.00 0.00 35 1044.4
20260506123730 82 247 7.0 12.0 0.00 0.00 0.00 35 1034.8
20260506123230 82 202 8.0 17.0 0.00 0.00 0.00 35 1016.4
20260506122730 82 247 8.0 11.0 0.00 0.00 0.00 35 959.6
20260506122429 82 202 9.0 16.0 0.00 0.00 0.00 35 1000.6
20260506122231 83 225 12.0 16.0 0.00 0.00 0.00 34 1039.7
20260506121730 83 202 5.0 15.0 0.00 0.00 0.00 34 1033.7
20260506121230 83 292 8.0 12.0 0.00 0.00 0.00 34 1028.3
20260506120730 83 202 9.0 14.0 0.00 0.00 0.00 34 1010.4
20260506120230 84 270 10.0 15.0 0.00 0.00 0.00 34 1049.1
20260506115730 84 247 6.0 19.0 0.00 0.00 0.00 33 1016.7
20260506115230 85 202 10.0 18.0 0.00 0.00 0.00 33 985.3
20260506115129 85 202 7.0 18.0 0.00 0.00 0.00 33 1075.2
20260506114730 85 202 2.0 15.0 0.00 0.00 0.00 33 971.1
20260506114230 84 225 4.0 17.0 0.00 0.00 0.00 34 1041.0
20260506113730 83 270 6.0 11.0 0.00 0.00 0.00 34 1042.8
20260506113230 83 225 7.0 18.0 0.00 0.00 0.00 33 1046.0
20260506112730 84 202 12.0 20.0 0.00 0.00 0.00 33 1004.1
20260506112230 84 157 10.0 15.0 0.00 0.00 0.00 33 1033.4
20260506111829 84 202 6.0 16.0 0.00 0.00 0.00 33 1069.5
20260506111730 84 135 3.0 16.0 0.00 0.00 0.00 33 969.8
20260506111230 84 157 7.0 18.0 0.00 0.00 0.00 33 1074.0
20260506110731 83 225 10.0 20.0 0.00 0.00 0.00 33 1042.8
20260506110230 84 225 10.0 16.0 0.00 0.00 0.00 33 967.6
20260506105730 84 202 6.0 18.0 0.00 0.00 0.00 32 1078.2
20260506105230 84 202 13.0 20.0 0.00 0.00 0.00 32 1042.8
20260506104730 85 202 13.0 15.0 0.00 0.00 0.00 32 965.4
20260506104529 85 247 8.0 15.0 0.00 0.00 0.00 32 976.7
20260506104230 85 270 8.0 10.0 0.00 0.00 0.00 31 1054.3
20260506103730 86 157 10.0 16.0 0.00 0.00 0.00 30 1039.7
20260506103230 86 180 3.0 13.0 0.00 0.00 0.00 30 1046.3
20260506102730 85 180 12.0 18.0 0.00 0.00 0.00 31 1047.7
20260506102230 85 247 6.0 14.0 0.00 0.00 0.00 31 921.5
20260506101730 84 135 8.0 11.0 0.00 0.00 0.00 31 1055.4
20260506101229 84 135 11.0 12.0 0.00 0.00 0.00 30 1051.4
20260506100730 84 225 7.0 16.0 0.00 0.00 0.00 30 972.3
20260506100230 84 157 4.0 13.0 0.00 0.00 0.00 30 1057.5
20260506095730 84 112 0.0 19.0 0.00 0.00 0.00 30 1042.8
20260506095230 84 225 9.0 12.0 0.00 0.00 0.00 30 1013.5
20260506094730 84 247 10.0 11.0 0.00 0.00 0.00 30 1083.7
20260506094230 84 202 10.0 12.0 0.00 0.00 0.00 30 1071.9
20260506093930 84 180 8.0 16.0 0.00 0.00 0.00 29 1039.7
20260506093730 84 202 11.0 16.0 0.00 0.00 0.00 29 1075.2
20260506093230 84 202 7.0 10.0 0.00 0.00 0.00 29 1010.0
20260506092730 85 225 4.0 8.0 0.00 0.00 0.00 29 968.7
20260506092230 85 157 2.0 8.0 0.00 0.00 0.00 29 991.6
20260506091731 86 180 2.0 12.0 0.00 0.00 0.00 28 1053.1
20260506091231 87 202 5.0 12.0 0.00 0.00 0.00 28 1004.5
20260506090731 88 225 6.0 12.0 0.00 0.00 0.00 28 1044.9
20260506090630 88 157 5.0 12.0 0.00 0.00 0.00 28 1046.1
20260506090231 88 135 0.0 8.0 0.00 0.00 0.00 28 1049.1
20260506085731 88 135 7.0 11.0 0.00 0.00 0.00 28 973.8
20260506085231 88 157 6.0 12.0 0.00 0.00 0.00 28 1034.5
20260506084731 88 225 6.0 9.0 0.00 0.00 0.00 29 1042.8
20260506084231 88 180 4.0 8.0 0.00 0.00 0.00 29 1046.0
20260506083731 88 270 4.0 8.0 0.00 0.00 0.00 28 1054.5
20260506083330 88 202 2.0 9.0 0.00 0.00 0.00 28 1035.2
20260506083231 88 157 9.0 9.0 0.00 0.00 0.00 28 1081.5
20260506082731 88 202 4.0 9.0 0.00 0.00 0.00 28 1043.1
20260506082231 89 202 6.0 9.0 0.00 0.00 0.00 27 1023.1
20260506081731 91 180 1.0 5.0 0.00 0.00 0.00 26 1090.9
20260506081231 93 157 2.0 10.0 0.00 0.00 0.00 26 1092.0
20260506080731 94 180 9.0 9.0 0.00 0.00 0.00 26 1048.5
20260506080231 94 247 2.0 6.0 0.00 0.00 0.00 26 1033.0
20260506073231 93 157 5.0 5.0 0.00 0.00 0.00 30 1084.7
20260506072730 92 157 2.0 7.0 0.00 0.00 0.00 29 991.6
20260506072231 93 202 1.0 2.0 0.00 0.00 0.00 30 1016.7
20260506071731 93 202 2.0 3.0 0.00 0.00 0.00 30 1103.3
20260506071237 92 157 0.0 4.0 0.90 0.00 0.00 31 1069.2
20260506071231 92 157 0.0 4.0 0.00 0.00 0.00 31 1069.2
20260506070731 89 225 2.0 4.0 0.00 0.00 0.00 33 1018.9
20260506070231 87 112 1.0 3.0 0.00 0.00 0.00 33 1017.5
20260506062238 84 135 2.0 4.0 0.00 0.00 0.00 39 1304.9
20260506062231 84 135 2.0 4.0 0.00 0.00 0.00 39 1049.8
20260506062130 84 135 3.0 3.0 0.00 0.00 0.00 39 1072.1
20260506061731 84 45 2.0 6.0 0.00 0.00 0.00 39 1094.0
20260506061231 84 112 4.0 6.0 0.00 0.00 0.00 40 1091.9
20260506060738 83 135 3.0 6.0 0.00 0.00 0.00 41 1056.4
20260506060731 83 135 3.0 6.0 0.00 0.00 0.00 41 1056.4
20260506060231 82 112 2.0 4.0 0.00 0.00 0.00 43 1078.4
20260506051231 68 22 3.0 7.0 0.00 0.00 0.00 58 1055.4
20260506050731 67 22 3.0 8.0 0.00 0.00 0.00 60 1081.5
20260506050231 66 45 3.0 7.0 0.00 0.00 0.00 63 1090.9
20260506044731 62 67 3.0 5.0 0.00 0.00 0.00 74 1039.7
20260506044230 58 22 5.0 7.0 0.00 0.00 0.00 77 988.4
20260506043731 55 22 3.0 8.0 0.00 0.00 0.00 75 1042.8
20260506043231 55 67 6.0 8.0 0.00 0.00 0.00 75 1075.2
20260506042731 55 67 8.0 8.0 0.00 0.00 0.00 74 1094.1
20260506042231 55 90 2.0 7.0 0.00 0.00 0.00 74 1045.9
20260506041731 55 67 7.0 7.0 0.00 0.00 0.00 73 1084.6
20260506041231 56 135 2.0 6.0 0.00 0.00 0.00 73 1046.0
20260506040930 56 112 3.0 9.0 0.00 0.00 0.00 72 1042.8
20260506040731 56 67 3.0 9.0 0.00 0.00 0.00 72 1058.5
20260506040231 57 112 4.0 8.0 0.00 0.00 0.00 73 1087.8
20260506035731 57 67 6.0 8.0 0.00 0.00 0.00 76 1036.5
20260506035231 56 45 2.0 6.0 0.00 0.00 0.00 78 1072.1
20260506034731 55 337 4.0 8.0 0.00 0.00 0.00 80 1082.4
20260506034231 54 45 2.0 5.0 0.00 0.00 0.00 80 1049.1
20260506033731 53 67 2.0 8.0 0.00 0.00 0.00 80 995.3
20260506033630 53 90 4.0 8.0 0.00 0.00 0.00 80 927.0
20260506033231 53 45 6.0 6.0 0.00 0.00 0.00 80 1030.3
20260506032731 53 67 3.0 7.0 0.00 0.00 0.00 80 1090.3
20260506032231 52 112 0.0 10.0 0.00 0.00 0.00 79 1043.1
20260506031731 52 67 10.0 10.0 0.00 0.00 0.00 79 1078.4
20260506031231 52 67 3.0 8.0 0.00 0.00 0.00 79 997.9
20260506030731 52 22 8.0 8.0 0.00 0.00 0.00 78 1055.4
20260506030330 52 45 4.0 7.0 0.00 0.00 0.00 78 1089.8
20260506030231 52 67 4.0 7.0 0.00 0.00 0.00 78 1084.6
20260506025731 52 45 3.0 7.0 0.00 0.00 0.00 77 1075.2
20260506025231 52 22 3.0 7.0 0.00 0.00 0.00 77 1087.8
20260506024731 52 45 3.0 6.0 0.00 0.00 0.00 77 1046.0
20260506024231 52 45 3.0 6.0 0.00 0.00 0.00 76 1084.7
20260506023731 52 45 2.0 7.0 0.00 0.00 0.00 76 1081.4
20260506023231 52 90 1.0 7.0 0.00 0.00 0.00 76 1055.2
20260506023030 52 22 4.0 6.0 0.00 0.00 0.00 76 1008.3
20260506022731 52 45 4.0 6.0 0.00 0.00 0.00 76 1055.4
20260506022231 52 45 1.0 5.0 0.00 0.00 0.00 76 988.4
20260506021731 52 90 4.0 6.0 0.00 0.00 0.00 75 1072.1
20260506021231 52 22 3.0 8.0 0.00 0.00 0.00 75 1078.4
20260506020731 52 22 4.0 7.0 0.00 0.00 0.00 75 1026.6
20260506020231 52 45 1.0 7.0 0.00 0.00 0.00 75 1065.8
20260506015730 52 22 0.0 4.0 0.00 0.00 0.00 75 1078.4
20260506015231 52 45 2.0 7.0 0.00 0.00 0.00 75 1081.5
20260506014732 52 45 2.0 7.0 0.00 0.00 0.00 75 1078.3
20260506014231 52 22 4.0 6.0 0.00 0.00 0.00 75 1036.6
20260506013732 52 45 2.0 6.0 0.00 0.00 0.00 75 1087.8
20260506013231 52 22 2.0 5.0 0.00 0.00 0.00 74 1027.1
20260506012731 53 45 2.0 6.0 0.00 0.00 0.00 74 1065.7
20260506012430 53 45 6.0 6.0 0.00 0.00 0.00 74 1010.4
20260506012231 53 90 2.0 5.0 0.00 0.00 0.00 74 1033.4
20260506011731 53 22 3.0 8.0 0.00 0.00 0.00 74 1075.2
20260506011231 53 45 5.0 9.0 0.00 0.00 0.00 74 994.7
20260506010731 53 45 5.0 10.0 0.00 0.00 0.00 74 1046.0
20260506010231 53 22 3.0 5.0 0.00 0.00 0.00 74 1075.2
20260506005731 53 270 3.0 12.0 0.00 0.00 0.00 75 1062.7
20260506005231 53 90 8.0 11.0 0.00 0.00 0.00 75 1039.7
20260506005130 53 67 6.0 6.0 0.00 0.00 0.00 75 1055.4
20260506004731 53 270 2.0 5.0 0.00 0.00 0.00 75 1042.8
20260506004239 53 22 2.0 11.0 0.00 0.00 0.00 75 1027.1
20260506004231 53 22 2.0 11.0 0.00 0.00 0.00 75 1027.1
20260506003731 54 22 5.0 8.0 0.00 0.00 0.00 75 1012.9
20260506003231 54 67 1.0 6.0 0.00 0.00 0.00 75 1060.3
20260506002731 54 0 2.0 6.0 0.00 0.00 0.00 75 1042.1
20260506002231 54 45 0.0 3.0 0.00 0.00 0.00 75 1053.4
20260506001831 54 45 1.0 6.0 0.00 0.00 0.00 75 1080.8
20260506001731 54 22 1.0 6.0 0.00 0.00 0.00 75 1060.9
20260506001231 54 45 3.0 6.0 0.00 0.00 0.00 75 1043.3
20260506000731 55 0 4.0 4.0 0.00 0.00 0.00 75 989.4
20260506000232 55 0 2.0 5.0 0.00 0.00 0.00 75 1049.0
20260505235732 55 22 2.0 5.0 0.00 0.00 0.00 75 1083.2
20260505235231 55 67 5.0 9.0 0.00 0.00 0.00 75 956.0
20260505234731 55 22 4.0 7.0 0.00 0.00 0.00 75 964.8
20260505234531 55 22 5.0 7.0 0.00 0.00 0.00 75 1032.0
20260505234232 55 90 2.0 8.0 0.00 0.00 0.00 75 1078.4
20260505233732 55 45 3.0 6.0 0.00 0.00 0.00 75 1050.2
20260505233232 56 22 2.0 9.0 0.00 0.00 0.00 75 1081.5
20260505232732 56 0 7.0 7.0 0.00 0.00 0.00 75 1078.4
20260505232232 56 0 2.0 8.0 0.00 0.00 0.00 75 1081.6
20260505231732 56 45 3.0 8.0 0.00 0.00 0.00 75 1007.7
20260505231231 57 0 7.0 7.0 0.00 0.00 0.00 75 1104.9
20260505230732 57 0 2.0 9.0 0.00 0.00 0.00 75 1087.8
20260505230232 57 0 9.0 9.0 0.00 0.00 0.00 75 1012.4
20260505225732 57 0 4.0 9.0 0.00 0.00 0.00 74 963.6
20260505225232 58 0 3.0 8.0 0.00 0.00 0.00 74 1081.5
20260505224732 58 22 3.0 5.0 0.00 0.00 0.00 74 946.6
20260505224232 58 45 0.0 10.0 0.00 0.00 0.00 74 1007.0
20260505223931 58 67 5.0 10.0 0.00 0.00 0.00 73 1090.9
20260505223732 58 67 3.0 5.0 0.00 0.00 0.00 73 922.9
20260505223232 58 0 2.0 6.0 0.00 0.00 0.00 73 1002.5
20260505222732 59 67 4.0 8.0 0.00 0.00 0.00 73 1051.9
20260505222232 59 45 0.0 10.0 0.00 0.00 0.00 73 1045.7
20260505221732 59 22 5.0 7.0 0.00 0.00 0.00 73 953.0
20260505221232 59 67 7.0 9.0 0.00 0.00 0.00 72 1055.4
20260505220732 60 22 2.0 5.0 0.00 0.00 0.00 71 989.1
20260505220631 60 0 2.0 7.0 0.00 0.00 0.00 71 937.9
20260505220232 60 67 2.0 7.0 0.00 0.00 0.00 71 885.3
20260505215732 60 337 4.0 6.0 0.00 0.00 0.00 71 1064.1
20260505215232 60 45 3.0 8.0 0.00 0.00 0.00 70 1103.5
20260505214732 60 22 3.0 11.0 0.00 0.00 0.00 70 1078.4
20260505214232 61 22 2.0 9.0 0.00 0.00 0.00 69 1010.4
20260505213732 61 45 3.0 10.0 0.00 0.00 0.00 69 1010.4
20260505213331 61 22 5.0 8.0 0.00 0.00 0.00 68 1097.2
20260505213232 61 22 3.0 10.0 0.00 0.00 0.00 68 1010.4
20260505212732 62 22 6.0 10.0 0.00 0.00 0.00 68 1004.1
20260505212232 62 22 2.0 8.0 0.00 0.00 0.00 67 1016.7
20260505211732 63 0 8.0 11.0 0.00 0.00 0.00 67 974.3
20260505211232 63 45 5.0 11.0 0.00 0.00 0.00 66 1023.5
20260505210732 64 22 11.0 13.0 0.00 0.00 0.00 66 1045.7
20260505210232 64 315 7.0 12.0 0.00 0.00 0.00 64 972.9
20260505210031 64 0 8.0 9.0 0.00 0.00 0.00 64 1002.7
20260505205732 64 67 8.0 11.0 0.00 0.00 0.00 63 1010.4
20260505205232 65 315 4.0 10.0 0.00 0.00 0.00 63 1045.9
20260505204732 65 45 0.0 14.0 0.00 0.00 0.00 63 965.7
20260505204232 65 0 6.0 12.0 0.00 0.00 0.00 62 1007.3
20260505203732 66 45 4.0 14.0 0.00 0.00 0.00 62 1046.0
20260505203232 66 22 7.0 14.0 0.00 0.00 0.00 61 1010.4
20260505202731 66 22 14.0 14.0 0.00 0.00 0.00 62 997.9
20260505202232 66 0 5.0 13.0 0.00 0.00 0.00 61 923.6
20260505201732 66 22 8.0 16.0 0.00 0.00 0.00 61 926.7
20260505201232 67 45 8.0 15.0 0.00 0.00 0.00 59 971.7
20260505200732 67 0 9.0 12.0 0.00 0.00 0.00 58 1046.0
20260505200232 67 22 5.0 12.0 0.00 0.00 0.00 57 930.2
20260505195732 68 22 11.0 15.0 0.00 0.00 0.00 55 1004.1
20260505195431 68 67 8.0 12.0 0.00 0.00 0.00 55 1013.5
20260505195232 68 45 8.0 12.0 0.00 0.00 0.00 54 965.4
20260505194732 68 0 8.0 13.0 0.00 0.00 0.00 52 997.9
20260505194232 68 22 8.0 10.0 0.00 0.00 0.00 50 1039.7
20260505193732 69 22 6.0 9.0 0.00 0.00 0.00 49 997.9
20260505193232 69 22 5.0 9.0 0.00 0.00 0.00 47 920.5
20260505192732 69 0 5.0 10.0 0.00 0.00 0.00 45 1090.9
20260505192232 69 0 6.0 8.0 0.00 0.00 0.00 42 1055.4
20260505192131 69 0 4.0 8.0 0.00 0.00 0.00 41 1055.4
20260505191732 69 22 2.0 9.0 0.00 0.00 0.00 40 1081.5
20260505191232 69 315 4.0 9.0 0.00 0.00 0.00 36 1004.1
20260505190732 70 135 0.0 4.0 0.00 0.00 0.00 34 920.5
20260505190232 70 225 0.0 2.0 0.00 0.00 0.00 34 1045.9
20260505185732 70 337 2.0 7.0 0.00 0.00 0.00 33 1010.4
20260505185232 70 315 3.0 3.0 0.00 0.00 0.00 32 974.7
20260505184831 71 22 0.0 2.0 0.00 0.00 0.00 31 1039.7
20260505184732 71 112 0.0 2.0 0.00 0.00 0.00 31 974.8
20260505184239 71 135 1.0 2.0 0.00 0.00 0.00 31 1097.2
20260505184232 71 135 1.0 2.0 0.00 0.00 0.00 31 1097.2
20260505183732 71 135 0.0 2.0 0.00 0.00 0.00 30 1097.2
20260505183232 72 112 0.0 2.0 0.00 0.00 0.00 30 1100.3
20260505182732 72 135 1.0 2.0 0.00 0.00 0.00 29 1060.2
20260505182232 73 180 1.0 2.0 0.00 0.00 0.00 29 1039.7
20260505181732 73 157 1.0 3.0 0.00 0.00 0.00 29 1019.7
20260505181531 73 135 3.0 3.0 0.00 0.00 0.00 28 1058.5
20260505181232 74 135 1.0 3.0 0.00 0.00 0.00 28 1094.1
20260505180732 75 157 2.0 4.0 0.00 0.00 0.00 28 1042.8
20260505180232 75 112 4.0 5.0 0.00 0.00 0.00 28 1055.3
20260505175732 76 135 3.0 5.0 0.00 0.00 0.00 27 1055.4
20260505175232 76 157 5.0 5.0 0.00 0.00 0.00 27 1100.3
20260505174732 77 157 3.0 5.0 0.00 0.00 0.00 27 1100.3
20260505174231 77 112 1.0 3.0 0.00 0.00 0.00 27 1007.2
20260505173732 78 157 1.0 5.0 0.00 0.00 0.00 26 1004.1
20260505173232 78 157 5.0 7.0 0.00 0.00 0.00 26 1013.5
20260505172732 78 180 1.0 5.0 0.00 0.00 0.00 26 1100.3
20260505172232 78 157 2.0 6.0 0.00 0.00 0.00 26 1013.5
20260505171733 78 180 2.0 5.0 0.00 0.00 0.00 26 1019.7
20260505171232 78 180 3.0 6.0 0.00 0.00 0.00 26 1010.4
20260505170931 78 157 4.0 10.0 0.00 0.00 0.00 26 903.5
20260505170732 78 135 10.0 10.0 0.00 0.00 0.00 26 965.4
20260505170232 79 202 4.0 7.0 0.00 0.00 0.00 26 1058.5
20260505165732 79 180 4.0 8.0 0.00 0.00 0.00 26 1046.0
20260505165232 79 157 4.0 10.0 0.00 0.00 0.00 24 1049.1
20260505164732 80 157 2.0 6.0 0.00 0.00 0.00 24 1042.8
20260505164232 80 135 3.0 8.0 0.00 0.00 0.00 24 1013.5
20260505163733 80 157 4.0 10.0 0.00 0.00 0.00 24 1018.4
20260505163631 80 180 6.0 10.0 0.00 0.00 0.00 24 1055.4
20260505163232 80 157 3.0 12.0 0.00 0.00 0.00 23 1013.4
20260505162732 81 157 9.0 9.0 0.00 0.00 0.00 23 1010.4
20260505162232 81 180 7.0 8.0 0.00 0.00 0.00 23 1049.1
20260505161732 81 180 3.0 12.0 0.00 0.00 0.00 23 1052.2
20260505161232 82 202 5.0 12.0 0.00 0.00 0.00 23 1055.4